Notices

What's New in latest Release from April 7th, 2021:

- Updated Glossary, including Speed of Maximum Gust, and Total Hourly Precipitation

- Updated national and regional climate services offices contacts and prices information

- Addition of station inventory lists for 1981-2010, 1971-2000, and 1961-1990 Normals.

If you haven't already, please take our survey and provide feedback about our website: https://eccc.sondage-survey.ca/f/LanguageSelection.aspx?s=442ca660-fcf1-47c0-95a9-59707d6fd709

Hourly Data Report for April 15, 2021

CLYDE RIVER A
NUNAVUT
Current Station Operator: NAVCAN

70°29'09.000" N
68°31'01.000" W
26.50 m
2400804
71090
YCY

Download Data

Hourly Data (April 2021)
Hourly Data Report for April 15, 2021
TIME
LST
Temp Definition
°C
Dew Point Definition
°C
Rel Hum Definition
%
Precip. Amount Definition
mm

Wind Dir Definition
10's deg

Wind Spd Definition
km/h
Visibility Definition
km
Stn Press Definition
kPa
Hmdx Definition


Wind Chill Definition


Weather Definition


00:00 -21.7 -25.2 74 0.0 30 28 16.1 102.61   -34 LegendNANA
01:00 -22.1 -25.6 74 0.0 28 26 16.1 102.58   -35 LegendNANA
02:00 -21.3 -24.9 73 0.0 29 28 16.1 102.57   -34 LegendNANA
03:00 -22.4 -26.0 73 0.0 29 32 16.1 102.55   -36 LegendNANA
04:00 -23.4 -26.8 74 0.0 29 28 16.1 102.53   -37 LegendNANA
05:00 -22.3 -25.9 73 0.0 30 26 16.1 102.51   -35 LegendNANA
06:00 -21.0 -24.8 72 0.0 29 26 16.1 102.48   -33 LegendNANA
07:00 -19.6 -23.5 72 0.0 28 26 16.1 102.46   -31 LegendNANA
08:00 -17.3 -20.4 77 0.0 30 35 16.1 102.40   -30 LegendNANA
09:00 -16.7 -19.9 77 0.0 30 34 16.1 102.33   -29 LegendNANA
10:00 -16.3 -20.2 72 0.0 30 30 16.1 102.29   -28 LegendNANA
11:00 -15.8 -19.0 77 0.0 30 35 16.1 102.21   -28 LegendNANA
12:00 -15.6 -18.8 77 0.0 31 39 11.3 102.12   -28 Snow
13:00 -14.8 -18.0 77 0.0 30 41 11.3 102.08   -27 Snow
14:00 -14.3 -17.7 76 0.0 30 39 14.5 102.01   -26 LegendNANA
15:00 -13.9 -17.4 75 0.0 31 39 9.7 101.92   -26 Haze
16:00 -13.8 -17.4 75 0.0 31 41 8.1 101.87   -26 Snow
17:00 -13.4 -16.9 75 0.0 31 50 12.9 101.82   -26 Snow
18:00 -13.8 -17.5 74 0.0 31 43 11.3 101.76   -26 LegendNANA
19:00 -16.1 -19.3 77 0.0 30 26 16.1 101.69   -27 LegendNANA
20:00 -14.7 -17.7 78 0.0 32 45 6.4 101.61   -28 Snow
21:00 -15.4 -17.5 84 0.0 32 54 2.8 101.50   -30 Snow,Blowing Snow
22:00 -15.5 -17.2 87 0.0 31 48 3.2 101.46   -29 Snow,Blowing Snow
23:00 -15.0 -17.0 85 0.0 32 50 3.2 101.36   -29 Snow,Blowing Snow

Notes on Data Quality.

Legend

  • E = Estimated
  • M = Missing
  • NA = Not Available*
  • [empty] = Indicates an unobserved value
Date modified: